Wind_Speed
65 64 63 62 60 59 58 56 54 53 53 52 51 50 49 48 47 46 45 44 44 43 43 42 41 41 40 39 38 38 37 36 35 34 33 32 31 31 31 31 31 31 32 32 33 33 33 34 35 35 36 36 37 38 39 39 40 41 42 42 43 43 44 44 44 44 44 43 43 43 43 43 44 44 45 46 45 44 43 42 42 42 42 42 42 43
63 62 61 59 57 56 55 55 53 51 51 50 50 49 48 47 47 46 45 44 43 42 42 42 41 41 40 39 38 37 35 34 33 31 30 30 29 29 29 30 30 31 31 32 32 32 33 33 34 34 35 35 36 37 37 38 38 39 40 41 41 42 42 43 43 43 43 43 43 42 42 42 42 42 43 42 41 40 39 40 39 39 39 39 40 41
60 59 58 57 55 54 53 52 52 51 50 49 49 48 47 47 46 45 44 44 43 42 42 41 41 41 40 38 36 35 33 31 30 29 29 29 29 29 30 30 30 30 31 31 31 32 32 33 33 34 34 34 35 35 36 37 37 38 38 39 40 40 41 41 42 42 43 43 43 42 41 40 40 40 40 39 38 38 39 39 39 39 38 38 40 42
57 56 55 55 54 52 52 51 50 50 50 49 48 47 47 46 46 45 44 44 43 43 42 41 41 40 39 37 35 33 31 30 29 29 29 29 29 29 29 29 29 29 29 29 30 30 31 32 32 33 34 34 34 35 35 36 36 37 37 38 38 39 40 41 41 42 43 42 42 41 40 40 40 40 40 40 39 39 40 41 41 40 40 41 42 43
54 53 53 53 52 52 51 50 50 49 49 48 47 47 46 46 46 46 45 44 43 43 42 41 40 39 37 36 34 32 31 30 30 29 29 29 29 28 28 28 27 27 28 28 29 30 31 31 32 33 34 34 34 35 35 36 36 36 36 37 38 38 39 40 41 41 42 42 41 41 41 41 42 43 43 43 42 42 43 43 44 44 45 45 46 47
53 52 51 51 51 51 50 50 49 49 48 48 47 47 46 46 46 46 45 45 44 42 41 40 39 37 36 35 34 32 31 30 29 29 28 28 27 27 26 26 26 26 27 28 28 29 30 31 32 33 33 34 34 35 35 36 36 36 37 37 37 37 38 39 40 40 41 41 42 42 43 44 46 47 46 46 45 45 45 46 47 48 48 49 50 51
52 51 50 50 50 50 50 49 48 48 47 48 47 47 46 46 46 46 45 44 43 42 41 39 38 36 35 34 33 32 31 30 29 28 27 27 26 26 26 26 26 26 27 27 28 29 30 31 31 32 33 33 34 35 35 36 36 36 37 37 37 37 37 38 38 39 40 41 42 43 45 46 48 48 48 48 47 47 47 47 48 49 51 52 52 53
51 50 50 49 49 50 50 49 48 47 46 47 47 47 46 46 45 45 44 43 42 41 40 39 37 36 34 33 32 31 30 29 28 28 28 27 27 27 26 26 26 26 27 27 28 28 29 29 30 31 31 32 33 34 34 35 36 36 37 37 37 37 37 37 37 38 38 39 40 42 44 46 47 48 48 48 48 48 48 49 50 51 52 52 52 52
49 49 49 49 49 49 49 49 48 47 46 46 46 46 46 46 45 44 43 41 40 39 39 39 37 36 34 32 31 30 29 29 29 29 29 29 29 28 27 27 27 27 27 27 27 28 28 28 29 29 30 31 32 33 33 34 35 35 36 36 36 36 36 36 36 37 37 38 39 40 42 44 45 46 47 48 49 49 50 50 51 52 52 53 52 52
49 49 49 49 49 48 48 48 47 47 46 46 45 45 45 46 45 44 43 40 39 38 38 38 37 36 34 32 30 30 30 29 30 30 30 30 30 29 28 28 27 27 27 27 27 27 28 28 28 29 29 30 30 31 32 33 34 34 35 35 35 36 36 36 36 36 36 37 38 39 40 42 43 44 46 47 48 49 50 51 52 53 53 53 53 52
48 49 49 49 48 48 47 46 46 45 45 45 44 44 43 43 44 44 43 41 39 37 36 36 36 36 35 33 31 30 30 30 30 31 31 31 30 30 29 28 28 28 28 28 28 28 28 29 29 29 29 29 29 30 31 31 32 33 33 34 34 35 35 35 36 36 36 37 37 38 39 40 41 42 44 45 46 48 49 51 52 53 54 54 54 53
47 48 48 48 48 47 46 45 44 44 43 43 42 42 41 41 41 42 43 42 40 38 37 35 35 35 35 35 34 32 32 32 32 32 32 32 32 31 31 30 29 29 29 29 29 29 30 29 29 29 28 28 28 29 29 30 31 31 32 33 33 34 35 35 35 36 36 37 37 37 38 39 39 40 41 43 44 46 47 49 50 52 53 53 53 53
47 47 47 47 46 46 45 44 43 42 41 41 41 41 41 41 41 41 41 40 39 38 37 36 35 34 35 36 36 35 34 34 34 34 34 34 34 33 33 32 31 31 31 31 31 31 30 30 30 29 28 28 27 27 28 29 29 30 31 32 33 34 34 35 35 36 36 36 37 37 37 38 38 39 39 40 42 43 45 46 48 49 50 51 52 52
46 46 46 46 45 44 43 42 42 41 40 40 40 40 41 41 40 40 40 39 38 37 37 36 36 35 35 36 37 37 37 36 36 36 36 36 35 35 35 34 33 33 33 33 32 32 31 31 30 29 28 27 26 26 27 27 28 29 30 31 33 34 34 35 36 36 36 37 37 37 37 37 37 37 38 38 39 41 42 43 45 46 48 49 50 50
45 45 45 45 44 42 41 41 40 40 39 39 39 40 40 40 39 39 38 38 37 37 37 37 36 36 36 37 38 39 39 39 39 39 38 37 36 35 36 35 35 34 34 34 33 33 32 31 30 29 27 26 26 26 26 27 28 29 30 31 32 33 34 35 36 36 36 37 37 37 37 37 37 37 37 37 38 39 40 41 42 44 45 46 47 48
45 44 44 43 42 41 40 39 39 39 39 39 39 39 39 38 38 37 37 37 37 37 38 38 38 37 36 36 37 38 40 40 40 41 40 39 37 35 36 36 35 35 34 34 34 33 32 31 30 29 28 27 26 26 26 27 28 29 30 31 32 33 34 34 35 35 36 36 36 36 36 36 36 36 36 36 37 37 38 39 40 41 42 44 45 46
44 43 43 42 41 40 39 38 38 38 38 38 37 37 37 37 36 36 36 37 38 39 39 40 40 40 39 37 36 37 40 41 42 42 41 40 37 35 35 36 36 35 34 34 34 34 33 32 31 30 28 27 26 26 26 27 28 28 29 30 31 32 33 34 34 35 35 35 35 35 35 35 35 35 35 35 35 36 36 37 38 39 40 41 43 44
43 42 41 40 40 39 38 37 37 36 36 36 36 36 35 35 35 35 36 37 38 39 40 41 41 42 42 41 39 38 39 41 42 42 42 40 38 36 35 35 35 35 34 34 34 34 34 33 31 30 28 27 26 26 26 26 27 28 28 29 30 31 32 33 34 34 35 35 35 35 34 34 34 33 33 33 33 34 34 35 35 36 37 39 40 42
42 40 39 38 38 37 37 36 35 35 35 35 35 35 34 34 34 35 36 37 38 40 41 41 42 42 43 43 41 40 40 41 42 42 42 41 38 36 35 35 35 34 34 34 34 34 34 33 31 29 27 26 25 24 24 25 26 27 28 29 30 31 32 33 33 34 34 35 35 34 34 34 33 33 32 32 32 32 32 32 33 34 35 36 37 39
41 39 37 36 36 36 36 34 33 33 33 33 33 34 34 34 35 36 37 38 39 40 41 42 43 43 43 43 42 41 40 40 41 41 41 40 38 36 35 35 35 35 34 34 35 35 34 33 30 28 26 24 23 23 23 24 25 26 28 29 30 31 32 33 33 34 34 34 34 34 34 34 33 33 32 32 31 31 31 31 31 31 32 33 34 35
39 36 34 33 34 34 34 33 32 31 31 31 32 33 34 35 36 36 37 38 39 40 41 42 43 43 43 43 42 41 39 39 39 40 41 40 38 36 35 35 36 35 35 35 35 35 34 32 30 27 25 23 21 21 22 23 25 26 28 29 30 31 31 32 33 33 34 34 34 34 34 34 34 33 32 32 31 31 30 30 30 30 30 31 31 32
36 34 32 31 31 32 32 32 31 30 30 30 31 33 34 35 36 37 38 39 40 41 42 42 43 43 43 43 41 39 37 37 38 39 40 40 38 36 35 35 36 36 36 36 36 35 34 32 29 26 23 21 20 20 21 23 25 26 27 28 29 30 31 32 32 33 33 33 34 34 33 33 33 32 31 31 30 29 29 29 29 29 29 29 30 30
32 31 30 29 29 29 30 30 30 29 29 30 31 32 34 35 37 38 39 40 41 41 42 43 43 43 42 41 39 37 35 35 36 37 39 39 38 36 35 35 36 37 37 37 37 36 34 30 27 24 22 20 19 19 21 22 24 25 26 27 28 29 29 30 30 31 31 31 31 31 31 31 31 30 30 29 28 27 27 27 27 27 27 28 28 29
30 29 28 28 27 28 28 28 28 29 29 30 31 32 34 35 37 38 39 40 41 42 43 43 43 41 40 38 37 35 34 34 35 36 38 39 38 36 35 36 38 38 38 38 38 36 33 29 26 22 20 18 18 18 19 21 22 23 24 24 25 25 25 26 26 27 27 27 27 27 28 28 28 27 27 27 26 25 25 25 25 25 25 26 26 27
27 26 26 26 26 26 27 27 28 28 29 30 32 33 34 36 37 38 39 40 40 41 42 41 41 40 38 37 36 34 33 33 34 35 37 38 38 37 36 37 39 40 40 39 37 35 32 28 24 20 18 16 16 16 17 18 19 20 20 20 21 21 21 22 22 23 23 23 24 24 25 25 25 25 25 25 25 24 24 23 23 24 24 24 25 25
24 24 24 24 25 25 26 27 27 28 29 31 32 34 35 36 37 38 38 38 39 39 39 39 39 38 37 37 36 35 33 32 33 34 36 37 38 37 36 38 39 41 40 39 37 34 31 26 22 18 16 15 15 15 16 16 17 17 18 18 19 19 20 21 22 23 23 24 25 25 25 26 26 26 26 26 26 25 24 24 24 24 24 24 25 25
22 22 23 23 24 25 26 27 28 29 30 31 32 34 35 36 37 37 37 36 36 36 36 37 37 37 37 37 36 35 34 33 33 34 35 37 38 38 38 38 40 41 41 39 36 32 29 24 20 17 15 15 15 15 16 16 16 17 17 18 19 20 21 22 23 24 25 26 26 27 27 27 28 28 28 28 28 28 27 26 26 25 25 26 26 26
21 22 23 24 25 26 27 28 29 30 30 31 32 33 34 35 35 35 34 34 34 34 34 34 35 36 37 38 37 36 34 33 33 34 35 36 37 38 38 39 40 41 41 38 34 29 26 22 19 16 15 15 16 16 16 16 16 16 16 17 18 19 20 21 22 23 24 25 26 26 26 27 27 27 28 28 29 29 28 28 28 27 28 28 28 28
21 22 23 25 26 27 28 29 30 30 31 31 32 32 32 32 32 32 32 32 31 31 32 33 34 35 37 38 37 36 34 32 32 34 35 36 37 38 38 39 39 40 40 38 32 26 22 20 18 16 15 16 16 16 16 16 15 15 15 15 16 17 18 20 21 22 23 23 24 24 25 25 25 26 26 26 27 27 27 27 27 28 29 30 30 31
23 24 25 26 27 28 29 30 30 31 31 31 30 29 29 29 28 29 29 29 29 30 31 32 33 35 36 38 38 37 34 32 32 33 34 36 37 38 38 39 39 39 39 38 33 26 20 17 16 15 15 15 16 16 16 16 16 15 15 15 16 17 18 19 20 21 22 22 23 23 23 24 24 24 24 25 25 25 25 25 26 27 28 29 30 31
25 26 27 28 29 30 30 31 31 31 30 29 28 26 25 25 25 26 26 26 27 28 30 31 32 33 35 36 37 37 35 33 32 32 34 35 37 37 38 39 39 38 38 37 34 29 22 15 13 13 14 14 15 16 16 17 17 17 17 17 18 19 20 21 21 22 22 22 23 23 23 23 23 24 24 24 24 24 24 24 25 26 27 28 29 30
27 28 29 30 30 31 31 31 31 30 29 27 24 23 22 22 23 23 23 24 25 26 28 30 31 32 33 34 35 35 35 33 32 32 34 35 36 37 37 38 38 37 36 34 32 30 25 18 13 11 12 14 15 17 18 18 19 20 20 20 20 21 22 23 23 24 24 24 23 23 23 23 23 23 23 23 24 24 24 24 24 25 27 28 29 29
29 30 31 31 31 31 31 31 30 28 26 23 21 20 20 20 21 21 22 22 24 25 27 29 31 32 33 33 33 33 33 32 32 32 34 35 36 37 37 37 37 36 35 32 29 26 24 21 17 14 13 14 16 18 19 20 21 21 22 22 23 24 25 25 25 25 25 25 24 24 23 22 22 22 22 22 22 23 23 23 24 25 27 28 29 30
30 31 31 32 31 31 30 29 27 24 22 20 19 19 19 20 20 20 21 22 23 24 26 28 29 31 32 33 33 32 32 31 31 32 33 34 36 36 36 36 36 35 34 31 27 24 21 19 18 17 16 15 16 18 20 21 22 22 23 24 24 25 26 27 27 27 26 26 25 24 23 22 21 20 20 20 20 21 21 22 23 24 26 28 29 30
31 31 31 31 30 29 28 26 23 21 19 18 17 18 19 20 21 21 22 23 23 24 26 27 28 29 30 31 32 32 32 31 31 31 32 33 34 35 35 35 34 33 32 30 27 23 20 18 18 19 19 18 18 19 20 22 22 23 23 24 25 26 27 28 28 28 27 26 26 25 24 22 21 19 18 18 18 19 20 20 21 22 24 25 27 28
31 31 30 29 28 27 25 22 20 18 17 17 17 18 20 21 22 22 23 24 25 25 26 26 26 26 27 28 29 30 31 31 30 30 31 32 33 34 34 33 32 31 30 28 26 24 21 19 19 20 21 22 21 21 21 22 23 23 23 24 24 25 27 28 29 29 28 27 26 25 24 23 21 20 18 17 17 17 18 19 19 20 22 23 25 27
30 29 28 27 26 24 22 20 18 17 17 17 18 19 21 21 22 23 23 24 25 25 25 25 25 25 24 25 26 27 29 29 29 29 30 30 31 32 32 31 30 29 28 27 25 24 23 22 21 21 22 23 24 24 24 24 24 24 24 24 25 26 27 28 29 30 30 30 28 27 25 23 22 20 19 18 17 17 17 18 18 19 21 22 24 25
28 27 26 25 24 22 20 19 17 17 17 18 19 20 21 22 22 23 23 24 24 25 25 25 24 24 23 23 24 25 27 28 28 28 29 29 30 30 30 30 28 27 25 24 24 23 23 24 24 24 24 24 25 26 27 27 27 27 26 25 25 26 27 29 30 31 31 32 31 29 26 24 22 21 20 19 18 18 18 17 18 19 20 21 23 24
27 26 24 23 22 20 19 18 17 18 18 19 20 21 22 22 22 22 22 23 24 25 25 25 24 23 22 22 23 24 25 26 27 27 27 28 28 28 28 28 27 25 24 22 22 22 23 24 25 26 27 27 27 27 27 28 29 29 28 27 26 26 27 29 30 31 32 33 33 32 29 26 23 22 20 20 19 19 19 19 19 19 20 21 21 22
26 24 23 21 21 20 18 18 18 19 20 20 21 22 23 24 23 22 22 22 22 24 25 25 24 23 22 22 23 23 24 25 25 26 26 26 26 26 26 26 26 25 23 22 21 21 22 23 24 26 27 28 29 28 28 28 29 30 30 29 28 27 28 29 31 32 32 33 35 35 33 29 26 23 22 21 21 21 21 20 20 20 21 21 21 21
25 23 22 21 20 20 19 19 20 21 21 22 23 24 25 26 25 24 22 21 22 23 24 25 25 23 22 21 22 22 23 24 24 24 24 25 25 25 25 25 25 24 23 22 21 21 22 23 24 25 26 28 29 29 29 29 29 30 31 32 31 30 29 30 31 32 33 34 35 36 35 32 29 26 23 22 22 22 22 22 22 21 21 21 21 21
24 23 22 21 20 20 20 21 22 23 23 23 23 25 27 27 28 27 25 23 23 24 25 26 27 26 24 22 21 21 22 22 23 23 23 23 23 23 23 23 23 23 23 22 22 21 22 23 24 25 26 27 28 29 29 29 30 31 32 33 33 32 30 30 31 32 34 35 36 36 36 34 31 28 25 24 23 22 22 22 22 22 22 22 21 20
24 23 21 21 20 21 22 23 23 24 23 23 24 25 26 27 28 28 27 26 25 26 28 28 29 28 27 25 23 22 21 21 22 22 22 22 22 22 22 22 22 23 23 23 22 22 22 22 23 24 26 27 28 30 31 31 31 31 32 33 33 33 33 32 32 32 33 35 36 36 36 34 31 28 26 25 24 22 21 20 21 23 24 23 22 21
23 22 21 20 21 21 22 23 24 24 24 23 24 25 26 27 28 28 28 27 27 27 29 29 29 29 28 27 26 24 22 21 21 21 21 21 21 21 21 21 21 21 22 22 23 23 23 23 23 24 25 27 28 30 31 32 32 32 32 33 33 33 33 33 33 34 34 35 36 36 36 34 31 28 27 26 25 23 21 20 21 23 24 25 23 22
23 22 21 20 20 21 21 23 24 25 24 24 24 25 26 27 28 29 29 28 28 28 29 29 29 29 28 28 27 26 24 22 21 20 19 19 20 20 20 20 20 20 20 21 22 23 24 24 24 25 26 27 28 30 31 32 33 33 32 32 32 32 32 32 33 34 36 36 37 37 36 33 30 28 27 27 26 25 22 20 20 22 24 24 24 21
23 22 21 20 20 20 22 23 24 25 25 24 24 25 27 28 28 29 29 29 28 28 28 29 29 29 28 28 28 27 26 24 22 20 19 19 19 19 19 19 19 19 19 19 20 22 23 24 25 26 27 28 28 29 31 32 33 33 32 32 31 31 30 31 32 34 36 38 38 38 35 31 28 27 27 27 27 26 24 21 20 21 23 23 22 20
23 22 22 21 21 21 22 24 24 25 25 24 24 25 26 28 29 30 30 29 29 29 28 28 28 28 27 27 28 28 27 26 24 22 21 19 19 19 19 18 18 18 18 18 19 20 21 23 25 27 28 29 29 30 30 31 31 32 32 32 31 31 30 31 32 34 36 38 39 38 35 31 28 25 24 25 27 27 25 22 20 20 22 22 21 18
24 23 23 23 23 23 24 25 26 26 25 25 24 25 26 27 29 30 30 30 29 29 29 29 28 27 27 26 27 27 27 27 26 24 23 21 20 19 19 18 18 17 17 17 17 18 19 21 23 25 27 29 30 30 30 30 30 30 31 31 31 31 31 31 32 34 35 37 37 37 35 33 30 27 25 25 25 26 25 22 20 20 21 20 18 16
24 24 24 24 25 25 26 27 27 27 26 26 25 25 26 27 28 29 30 30 29 29 29 29 29 28 28 27 27 27 27 27 26 25 24 23 21 20 19 19 18 17 16 16 16 17 17 19 21 24 26 28 30 31 31 30 30 30 30 30 31 31 31 31 32 33 35 36 36 35 33 32 30 28 27 26 25 24 24 23 21 20 20 19 16 14
23 24 25 26 26 27 28 28 28 27 27 27 27 27 27 28 28 29 29 29 28 28 28 29 29 29 29 29 28 28 28 27 27 26 25 24 23 22 21 20 19 18 17 16 16 16 16 17 18 21 25 28 30 31 31 31 31 30 30 30 30 31 31 31 32 33 34 35 35 34 33 32 30 29 28 27 24 23 23 22 21 20 18 16 15 13
23 24 25 26 28 28 29 29 29 28 28 28 28 29 29 29 29 29 28 28 27 27 27 27 28 29 30 30 30 29 29 28 28 27 27 25 24 23 22 22 21 20 19 18 18 17 17 17 17 18 21 25 28 30 31 32 32 31 31 30 30 30 31 31 32 32 33 34 35 34 33 32 31 30 29 27 25 23 21 20 20 20 18 16 14 14
Wind_Direction
313 313 312 312 313 313 312 313 313 314 313 314 314 315 314 313 312 311 311 311 311 311 312 313 314 315 315 316 315 315 314 313 311 310 309 307 305 303 302 300 298 297 296 294 293 292 291 290 288 287 285 283 282 280 278 277 275 274 273 272 271 270 269 269 268 267 267 266 266 265 265 264 263 262 261 261 260 260 260 260 260 260 260 259 259 258
313 313 313 313 313 313 313 313 314 314 314 314 314 314 314 313 311 311 312 313 314 316 317 318 318 318 318 317 316 315 314 313 313 312 311 310 308 307 305 304 303 301 300 299 298 297 296 294 293 291 289 288 286 284 282 280 279 277 276 274 273 272 270 269 268 267 266 265 264 264 263 263 263 263 262 262 262 262 262 261 259 259 258 259 259 258
313 313 313 313 313 313 313 314 314 315 315 315 314 314 313 313 313 313 315 316 318 319 320 320 319 318 317 317 316 316 316 316 317 316 315 314 313 311 309 307 305 304 302 301 300 298 296 295 293 292 290 289 287 286 284 283 281 279 278 276 274 273 271 270 268 267 266 265 264 263 263 263 264 263 263 262 261 260 259 259 258 258 258 258 258 257
314 314 313 314 314 314 314 314 315 315 315 315 314 314 314 315 316 317 318 320 321 321 321 320 319 318 317 318 318 319 321 322 322 320 318 316 314 311 309 306 305 303 301 300 298 296 295 294 292 291 290 289 288 286 285 283 282 280 279 277 275 274 272 270 268 267 265 264 263 263 263 263 263 262 260 258 256 253 252 252 252 252 251 252 252 252
315 314 314 314 314 314 314 315 315 315 315 315 316 316 317 318 319 320 320 321 321 321 320 319 319 319 319 320 322 324 325 325 323 320 317 314 311 308 306 304 303 301 300 299 297 296 295 294 292 291 290 289 288 287 285 284 283 281 280 278 277 275 273 272 270 268 266 264 262 261 260 258 257 256 255 253 251 249 246 245 244 243 243 243 245 246
315 315 315 314 314 314 314 315 315 316 317 317 318 319 319 320 320 320 320 321 320 320 319 319 320 321 322 323 325 326 325 324 321 317 313 310 308 307 306 305 304 303 302 301 299 298 296 294 293 291 290 289 288 287 286 285 284 282 281 280 278 276 275 273 272 270 268 265 262 259 257 255 254 253 252 251 250 249 246 244 243 242 241 241 243 244
315 315 315 314 314 314 314 315 316 318 319 320 320 321 320 320 320 319 319 319 319 319 319 320 321 322 323 324 325 324 323 321 318 314 312 310 309 309 310 310 309 308 306 304 302 299 297 295 293 291 290 288 287 286 285 284 283 282 281 280 279 278 276 275 273 272 270 268 265 262 259 258 256 255 254 253 252 250 249 247 245 245 244 245 245 246
315 314 314 314 314 314 316 317 319 321 322 322 321 321 320 319 318 318 318 318 319 320 320 321 322 322 323 323 323 322 321 320 317 316 314 314 314 315 315 315 314 312 310 307 304 302 300 298 295 293 291 289 287 286 284 283 283 282 282 281 280 279 278 277 275 273 272 269 267 265 263 261 260 259 258 256 255 253 252 250 249 249 249 249 250 251
314 313 313 313 315 317 318 320 321 322 322 321 320 319 319 318 317 317 317 318 320 321 321 321 321 321 322 322 322 322 322 321 320 319 319 318 318 319 319 318 316 314 311 309 308 306 305 303 301 298 295 292 289 287 285 284 283 282 282 281 281 280 279 278 277 275 273 271 269 267 265 264 263 262 260 259 257 256 255 254 253 253 254 254 255 255
313 314 314 315 317 319 320 321 322 322 321 320 318 318 317 317 317 317 318 319 321 322 321 320 320 320 321 322 323 324 324 323 322 321 320 320 320 321 320 319 317 315 313 312 312 312 312 310 307 304 300 297 293 290 287 285 284 283 283 282 282 281 280 279 278 276 274 273 271 269 268 266 265 263 262 260 259 258 257 256 256 256 257 257 258 258
314 315 316 317 319 320 321 321 321 320 319 318 316 316 315 316 316 317 318 319 321 322 321 320 319 320 320 322 324 326 326 325 323 321 320 320 320 321 320 319 318 317 316 317 317 318 317 316 313 309 305 301 297 293 290 287 286 284 283 283 282 281 280 279 278 277 276 275 273 272 270 269 267 265 264 262 261 259 258 257 257 257 257 258 258 258
315 316 317 318 319 320 320 320 319 318 317 316 316 316 316 316 316 316 317 318 320 321 321 320 319 320 321 323 326 328 328 326 324 322 320 320 321 322 322 320 319 319 319 320 321 322 321 319 316 312 308 304 300 296 292 289 287 285 283 282 281 280 279 279 278 277 276 275 274 273 272 271 269 268 266 265 263 261 260 259 258 257 257 257 258 258
315 315 316 317 318 318 318 318 317 317 317 316 316 316 316 316 316 316 316 317 318 319 319 319 319 320 323 325 328 330 330 328 325 322 321 322 323 324 324 323 322 322 322 323 324 324 323 321 317 314 310 306 301 297 293 289 287 284 283 281 280 279 279 278 277 277 276 276 275 274 274 273 271 270 269 267 266 264 262 261 260 259 258 258 258 257
314 314 315 315 316 317 317 317 317 317 317 317 316 315 315 316 316 316 316 316 317 318 318 319 320 322 325 328 330 331 331 328 325 323 322 323 325 326 325 324 323 323 323 324 324 325 324 321 318 315 311 306 301 297 292 289 286 284 282 281 280 279 278 278 278 278 277 277 277 276 275 274 273 272 271 269 267 266 264 263 262 261 260 259 259 258
313 314 314 315 316 317 318 318 317 317 316 316 316 315 315 315 316 316 315 316 317 318 319 320 322 324 327 329 330 331 331 328 325 323 322 323 325 327 326 324 323 323 324 324 325 325 324 322 319 316 312 308 303 298 293 289 286 284 282 281 280 279 279 278 278 279 279 278 278 278 277 276 275 274 273 271 269 268 266 264 263 262 261 261 260 259
312 314 315 316 317 318 318 317 317 316 316 316 315 314 314 315 315 316 316 317 318 320 322 323 324 325 327 329 330 331 330 327 325 323 322 323 325 327 326 324 323 323 324 325 325 325 324 323 320 318 314 310 306 300 296 292 288 285 283 282 281 280 279 279 279 279 280 279 279 279 279 278 277 276 275 273 272 270 268 266 265 263 262 261 260 260
313 315 316 318 318 318 317 317 316 316 315 315 314 314 314 314 315 316 318 319 321 322 323 324 325 325 325 328 330 331 330 327 324 323 322 323 325 327 326 324 323 323 324 325 326 326 325 324 323 321 318 314 309 303 298 294 290 287 285 283 282 281 281 281 281 281 281 281 281 281 281 281 280 280 279 278 276 274 272 270 268 265 264 262 261 260
314 316 317 318 318 317 316 316 316 315 314 314 313 313 313 314 316 318 319 321 322 323 323 323 323 323 324 325 329 332 330 327 324 322 322 323 325 327 326 324 323 323 325 327 328 328 327 326 325 323 320 316 311 305 300 295 291 288 286 284 283 282 282 282 283 283 284 285 285 286 286 286 286 285 285 284 282 280 278 275 272 269 267 265 263 261
315 317 318 318 317 315 315 315 315 314 314 313 314 314 315 316 317 319 320 321 321 322 322 322 322 322 323 324 328 331 330 327 324 322 321 322 324 326 326 325 324 324 326 328 329 329 328 327 326 325 321 317 311 305 299 295 291 287 285 283 283 282 283 284 285 287 288 289 290 291 291 292 292 292 291 290 288 286 284 281 278 275 271 268 266 264
315 317 318 317 315 314 313 314 314 313 313 314 314 316 317 318 319 320 320 320 320 321 321 321 321 322 322 324 327 329 330 327 324 322 321 321 324 326 327 325 325 326 328 330 331 330 329 329 328 326 323 318 312 305 299 294 289 286 284 283 283 284 285 287 289 290 292 293 294 295 296 297 297 296 296 294 293 291 289 286 283 280 277 273 270 266
315 316 317 316 314 313 312 312 313 313 314 316 316 317 318 319 319 319 319 320 320 320 320 320 320 321 322 323 326 329 329 327 324 322 321 321 323 326 327 327 326 328 330 331 332 332 331 331 331 329 326 320 313 305 298 293 289 286 285 285 286 288 289 291 292 294 295 296 297 298 299 300 300 299 298 297 296 294 292 290 287 284 281 278 274 271
314 316 316 314 312 311 311 312 313 315 317 318 318 319 319 319 319 319 319 320 320 320 320 319 319 320 321 323 326 328 329 328 325 323 321 321 323 325 328 328 328 329 331 333 334 334 334 334 334 333 329 322 314 305 298 293 290 289 289 290 292 293 294 295 296 297 298 299 299 300 301 301 301 300 299 298 297 295 293 291 288 286 284 281 278 275
314 314 314 313 311 311 312 314 316 317 318 319 319 319 318 319 318 318 319 319 319 319 318 318 318 319 321 323 325 328 329 329 326 323 321 321 322 326 329 329 329 330 333 335 336 336 337 338 338 336 331 323 315 307 300 297 295 295 297 298 299 300 300 300 300 300 301 301 301 301 301 301 300 300 299 298 297 295 293 291 289 287 285 283 281 278
314 313 312 312 312 313 314 316 317 318 318 318 318 318 318 318 318 318 318 318 318 317 316 317 317 319 321 323 325 328 330 330 328 324 322 321 322 326 329 330 330 332 334 336 337 338 339 340 341 338 333 326 318 311 307 305 305 306 307 308 307 307 306 305 304 303 303 302 302 301 301 300 300 299 298 297 296 295 294 292 291 289 287 285 283 280
313 313 313 313 314 314 315 316 317 318 318 318 318 318 318 318 317 317 317 317 316 315 315 315 317 319 322 324 326 329 332 332 329 326 323 321 323 326 330 332 332 333 335 338 339 340 341 343 344 342 338 332 326 321 319 319 319 320 320 319 317 315 313 311 310 308 307 306 304 304 303 302 301 300 299 298 296 295 294 293 292 291 290 288 285 282
312 313 314 314 315 315 316 316 317 318 318 319 319 319 318 317 316 316 315 314 314 314 314 315 318 320 323 325 327 331 334 334 331 327 323 322 324 327 331 333 333 334 336 338 340 342 344 347 348 347 344 340 336 334 333 333 333 332 331 329 327 324 321 319 316 315 313 311 310 309 307 306 305 303 302 300 298 297 295 294 293 291 290 288 286 282
313 315 316 316 316 316 316 316 317 318 320 320 319 318 316 315 314 313 313 313 313 314 316 318 320 323 324 326 329 332 336 336 332 328 325 324 325 328 331 333 334 335 336 338 341 344 348 351 352 352 351 349 346 344 343 342 342 341 339 336 332 329 325 322 319 317 315 314 312 311 310 308 307 305 303 302 300 298 297 295 294 292 290 287 284 281
317 318 318 318 317 317 317 318 319 320 320 319 318 316 314 312 312 312 312 313 315 317 319 322 324 325 326 328 330 333 337 337 334 329 326 326 326 328 331 333 335 336 337 338 341 346 353 356 357 356 356 354 350 348 346 346 345 344 342 339 335 331 326 322 319 316 314 313 312 311 309 308 306 305 303 301 300 298 297 296 294 292 289 287 284 283
320 320 320 319 319 318 319 319 319 320 319 318 316 313 312 311 310 311 313 316 318 321 323 325 327 328 328 329 330 333 337 338 335 330 328 327 327 329 331 333 335 337 338 338 340 347 358 3 3 360 359 355 351 348 346 346 345 344 342 339 336 331 327 322 319 317 315 314 312 312 310 308 307 305 303 301 299 297 296 294 293 291 288 287 285 285
322 321 321 320 320 320 319 319 319 319 317 316 314 312 311 311 311 313 316 320 323 325 326 327 329 329 330 330 331 333 337 338 335 331 328 327 327 329 331 333 335 337 339 339 340 346 359 11 11 5 359 355 350 346 345 344 343 342 341 339 337 334 331 327 325 323 321 320 318 316 314 311 309 307 305 302 300 298 296 294 292 290 288 287 286 286
324 323 322 322 321 320 320 319 318 318 317 316 314 313 312 312 313 316 320 325 327 327 327 328 329 330 330 331 332 333 336 337 335 332 329 328 328 330 332 333 335 338 339 340 339 342 351 6 15 11 2 354 348 345 344 344 343 342 341 341 340 339 337 335 333 331 329 326 324 321 318 314 312 309 306 304 302 300 298 296 294 292 290 289 289 288
325 324 323 323 322 321 320 319 319 319 318 317 316 315 314 314 317 320 324 327 328 329 328 328 329 330 330 331 332 334 336 336 335 332 330 329 328 330 332 333 335 337 339 340 339 339 341 349 360 5 2 354 348 345 345 345 345 344 343 343 344 344 343 341 338 336 333 331 328 324 321 316 313 309 306 304 302 300 299 298 296 295 293 292 292 292
326 325 324 323 322 322 321 321 320 320 320 320 318 317 316 317 319 322 325 326 327 328 328 328 329 330 330 331 332 334 335 336 335 333 331 329 329 330 331 333 334 336 337 338 339 338 338 341 345 348 351 351 348 346 345 345 345 345 345 346 346 346 345 343 341 338 335 332 329 326 322 317 313 308 304 301 299 298 297 296 295 295 294 294 294 294
326 325 324 324 323 323 323 323 324 324 324 323 321 320 319 319 321 322 324 325 325 326 327 328 329 330 331 332 332 333 334 335 335 333 331 330 329 329 331 332 334 335 336 337 338 339 339 339 340 340 341 344 345 345 343 343 344 345 346 347 347 347 346 344 342 340 337 334 330 327 323 319 313 308 303 300 297 294 293 293 293 293 293 293 293 293
326 326 325 325 325 325 326 327 327 328 328 326 324 322 321 322 323 323 324 324 325 326 327 328 329 331 332 332 332 333 333 334 334 333 331 330 328 328 330 331 333 334 334 335 337 338 337 338 338 337 337 338 341 343 342 342 342 343 344 346 347 347 347 346 344 342 339 336 333 329 325 321 316 311 306 301 297 294 292 290 290 290 290 290 290 290
327 327 327 327 327 328 329 330 332 332 331 328 326 324 324 325 326 327 327 327 327 327 328 328 329 330 331 332 332 332 332 332 332 332 331 329 328 328 329 331 333 334 334 334 335 335 335 335 335 335 335 336 338 340 341 340 340 340 342 343 345 346 346 346 345 345 343 341 338 334 329 324 319 315 310 306 301 296 292 290 289 288 288 288 288 289
329 329 329 329 329 330 331 333 334 334 332 330 328 327 328 329 329 330 331 331 331 331 330 330 329 330 331 331 331 331 330 330 330 331 330 329 328 328 328 330 332 333 334 333 333 333 332 332 332 333 334 335 337 338 339 339 338 338 339 341 343 344 345 345 346 346 346 346 344 340 334 328 322 318 315 311 305 300 294 290 287 286 286 287 288 289
331 331 331 331 331 331 332 333 334 333 331 330 329 329 329 330 330 331 332 333 334 334 333 332 331 331 331 332 331 330 330 329 329 329 330 329 328 328 328 329 331 333 334 333 332 331 331 331 332 332 333 334 336 337 338 338 337 337 337 338 340 342 344 345 345 346 347 348 347 344 339 333 326 321 318 315 311 305 300 294 290 288 287 288 289 290
333 333 333 332 331 330 330 331 330 330 330 330 330 330 330 329 329 329 331 333 334 335 335 334 333 332 333 333 333 332 331 330 329 329 329 329 329 328 328 329 331 332 334 333 332 331 330 331 331 332 332 333 335 336 338 338 337 336 335 335 338 341 343 344 345 346 347 348 348 347 344 338 332 326 323 320 318 314 310 305 300 297 295 294 292 291
335 335 334 332 330 328 327 327 329 330 331 332 332 332 331 330 328 327 328 331 334 335 335 334 334 334 335 336 336 335 333 331 329 328 329 329 329 329 329 330 331 332 333 333 333 332 331 331 331 331 331 332 333 335 337 338 337 336 335 335 337 340 343 345 345 346 347 349 349 348 346 342 337 333 330 327 326 323 319 314 310 306 303 300 296 293
336 337 336 334 332 329 329 330 331 333 333 335 337 338 337 335 333 330 329 331 335 337 337 336 335 335 335 337 338 337 335 332 330 329 329 330 331 331 331 331 331 332 333 333 333 333 332 331 331 332 331 331 332 334 336 338 338 337 336 336 336 339 342 345 346 347 348 350 350 350 347 344 341 338 335 333 331 329 325 321 316 311 308 304 299 295
338 338 338 337 335 333 332 333 334 335 336 339 343 345 344 340 337 334 333 335 340 343 342 341 339 337 336 336 336 336 335 333 332 330 331 331 332 333 333 333 333 332 333 333 333 333 333 333 332 332 331 331 331 333 335 336 337 337 336 335 336 338 341 345 348 349 349 351 352 351 349 345 343 340 338 336 334 332 329 324 320 316 313 310 304 297
339 339 340 339 338 337 336 336 337 338 340 345 348 348 345 342 339 337 336 338 342 346 346 344 341 338 335 334 333 334 335 335 334 332 332 332 333 334 335 335 334 334 333 332 332 332 333 332 332 331 330 330 330 332 334 335 336 336 335 335 336 338 341 345 348 350 351 353 354 353 351 347 344 341 339 338 338 338 334 329 323 319 317 315 310 304
339 340 340 340 339 338 338 338 340 342 344 348 350 348 345 342 340 339 338 339 342 345 346 344 340 338 335 334 334 334 334 334 333 332 331 332 334 336 337 337 336 334 333 332 331 331 331 331 331 330 330 330 331 332 333 334 334 335 334 335 336 338 342 345 348 350 352 355 356 356 353 349 345 341 339 341 345 347 342 334 327 324 322 321 319 316
339 339 339 339 338 337 337 339 340 342 345 347 348 347 345 343 341 340 338 339 341 343 344 342 340 338 336 335 335 334 334 332 331 330 330 331 333 336 337 337 336 334 333 331 330 330 329 329 330 329 329 330 331 332 333 333 333 333 334 334 335 338 342 346 348 350 353 355 357 357 355 351 347 343 341 344 350 353 351 344 336 331 329 328 327 327
338 338 337 336 336 335 336 337 338 340 342 344 346 347 346 344 342 340 338 338 339 341 341 341 340 339 337 336 335 334 334 332 330 329 329 330 333 334 335 336 336 335 334 332 331 330 330 329 329 329 329 330 331 332 332 332 332 332 333 334 335 338 343 347 350 352 354 356 358 358 356 352 348 344 342 345 349 354 356 354 348 342 337 335 335 336
337 337 336 335 334 334 335 335 336 337 339 342 345 346 346 344 342 340 338 337 338 339 339 340 340 339 337 335 334 334 334 334 333 331 329 329 330 332 333 334 334 334 333 332 331 330 329 329 329 328 328 329 330 331 332 332 332 332 333 334 336 339 344 349 352 355 357 359 360 359 356 353 350 346 342 343 348 354 360 2 359 351 343 340 343 347
338 337 336 335 334 334 334 333 334 336 338 341 344 346 346 344 341 339 337 337 337 337 339 340 340 339 336 334 334 334 335 337 337 335 332 329 328 329 329 330 331 331 331 330 329 329 329 329 328 328 328 328 329 330 331 331 332 333 334 336 338 341 345 350 354 357 359 1 2 1 358 355 351 346 342 342 349 358 6 7 4 355 345 343 349 358
338 337 336 335 334 334 334 334 335 336 338 340 342 344 345 344 341 338 337 336 336 338 340 341 341 339 337 335 334 335 336 338 338 337 335 332 329 328 327 327 328 327 327 326 325 325 325 327 328 328 327 327 328 328 329 331 332 334 336 337 339 342 346 351 355 359 2 4 4 2 359 356 352 348 345 347 356 7 14 11 5 355 346 346 354 6
338 337 336 335 335 334 334 335 336 337 338 339 341 342 343 342 340 338 336 335 336 337 340 341 341 340 338 337 336 336 337 338 339 339 337 334 331 330 329 328 327 326 324 322 320 318 318 322 326 327 327 327 327 328 329 331 333 335 337 339 340 343 347 351 356 0 4 6 5 3 1 358 355 352 351 355 5 16 21 15 6 357 352 353 2 11
338 337 337 336 336 335 335 336 337 338 338 339 339 340 341 341 339 337 335 334 335 337 339 340 341 341 339 338 338 338 339 340 341 341 340 336 334 332 332 331 330 329 326 323 320 317 315 316 321 326 329 328 328 329 331 332 333 335 336 339 341 344 347 352 357 1 6 8 7 5 3 1 360 359 359 1 8 17 21 17 11 8 8 12 17 15
Height
2923 2920 2917 2915 2913 2910 2907 2904 2903 2901 2899 2896 2893 2892 2890 2888 2885 2883 2881 2879 2877 2875 2872 2870 2868 2866 2864 2863 2861 2859 2858 2856 2855 2853 2852 2850 2848 2846 2845 2843 2841 2839 2838 2837 2835 2834 2833 2832 2831 2829 2829 2828 2827 2825 2825 2824 2823 2823 2822 2821 2821 2820 2820 2819 2819 2819 2819 2819 2819 2819 2818 2818 2818 2818 2818 2818 2819 2820 2821 2822 2823 2823 2824 2825 2827 2828
2919 2916 2913 2910 2909 2907 2904 2901 2899 2897 2895 2893 2891 2889 2886 2884 2882 2879 2877 2875 2873 2871 2869 2866 2864 2862 2861 2859 2858 2857 2855 2854 2852 2850 2849 2847 2845 2843 2841 2839 2838 2836 2835 2834 2832 2831 2830 2829 2827 2826 2825 2824 2823 2821 2820 2820 2819 2818 2818 2817 2816 2816 2816 2815 2815 2815 2815 2814 2814 2814 2814 2814 2814 2814 2814 2814 2816 2817 2817 2818 2818 2819 2820 2821 2822 2823
2916 2913 2909 2906 2905 2903 2901 2899 2896 2894 2892 2890 2888 2885 2883 2880 2878 2875 2873 2871 2869 2867 2865 2864 2861 2859 2858 2856 2855 2854 2852 2850 2849 2847 2845 2843 2841 2840 2838 2837 2835 2834 2832 2831 2830 2828 2827 2825 2824 2823 2821 2820 2819 2818 2817 2816 2815 2814 2813 2813 2812 2811 2811 2811 2810 2810 2810 2810 2810 2810 2810 2810 2810 2810 2810 2811 2813 2814 2814 2814 2815 2815 2816 2817 2818 2819
2911 2909 2906 2903 2901 2899 2897 2895 2894 2891 2889 2886 2884 2882 2879 2876 2874 2871 2869 2868 2866 2864 2862 2861 2859 2857 2855 2853 2852 2850 2849 2847 2845 2844 2842 2840 2839 2837 2836 2834 2833 2832 2830 2829 2827 2826 2824 2823 2821 2819 2818 2817 2815 2814 2813 2812 2811 2810 2809 2809 2808 2807 2806 2806 2806 2805 2805 2805 2806 2806 2807 2807 2807 2806 2806 2806 2808 2809 2809 2810 2811 2812 2812 2813 2814 2814
2907 2905 2902 2900 2897 2895 2893 2892 2890 2888 2885 2883 2880 2878 2875 2872 2869 2867 2866 2864 2863 2861 2859 2858 2856 2854 2852 2850 2849 2847 2846 2844 2843 2841 2840 2838 2837 2835 2834 2832 2831 2829 2828 2827 2825 2823 2821 2820 2818 2816 2815 2814 2812 2811 2810 2809 2807 2806 2805 2804 2804 2803 2802 2802 2801 2801 2801 2801 2801 2802 2802 2802 2801 2801 2800 2800 2801 2802 2803 2804 2804 2805 2805 2806 2806 2806
2903 2901 2899 2897 2894 2892 2890 2889 2887 2885 2882 2878 2876 2874 2871 2869 2866 2864 2863 2861 2860 2858 2856 2854 2853 2851 2849 2847 2846 2845 2844 2842 2841 2839 2838 2836 2835 2833 2832 2830 2829 2827 2825 2824 2822 2820 2819 2817 2815 2814 2812 2810 2809 2808 2806 2805 2804 2803 2802 2801 2800 2799 2798 2798 2797 2796 2796 2796 2796 2796 2796 2795 2795 2795 2795 2795 2796 2797 2798 2798 2798 2799 2799 2799 2800 2800
2899 2897 2895 2894 2891 2889 2887 2885 2884 2882 2879 2874 2871 2869 2868 2866 2864 2862 2860 2859 2857 2855 2853 2852 2850 2849 2847 2845 2844 2843 2842 2840 2839 2837 2835 2834 2832 2830 2829 2828 2826 2824 2823 2821 2819 2818 2816 2814 2812 2810 2809 2807 2806 2804 2803 2801 2800 2799 2798 2797 2796 2795 2794 2794 2793 2792 2792 2791 2791 2791 2791 2790 2790 2790 2790 2791 2791 2792 2793 2793 2794 2794 2794 2795 2795 2796
2896 2894 2892 2890 2888 2886 2884 2881 2879 2878 2875 2872 2869 2866 2864 2863 2861 2860 2858 2857 2855 2853 2851 2849 2847 2846 2845 2844 2842 2841 2839 2838 2836 2834 2832 2830 2829 2828 2826 2825 2824 2822 2820 2818 2816 2815 2813 2811 2809 2808 2806 2804 2803 2801 2799 2798 2797 2795 2794 2793 2792 2791 2790 2790 2789 2789 2788 2787 2787 2787 2786 2786 2786 2786 2786 2787 2787 2788 2788 2789 2789 2789 2790 2790 2791 2792
2893 2891 2889 2887 2885 2883 2880 2877 2875 2874 2872 2870 2867 2864 2861 2859 2858 2856 2855 2854 2853 2851 2849 2846 2844 2843 2843 2842 2840 2839 2837 2835 2833 2831 2829 2827 2826 2824 2824 2822 2821 2819 2817 2816 2814 2812 2810 2808 2806 2804 2803 2801 2799 2798 2796 2794 2793 2792 2791 2789 2789 2788 2787 2786 2785 2784 2784 2783 2783 2783 2782 2782 2782 2782 2782 2783 2783 2784 2784 2784 2784 2785 2785 2786 2787 2788
2890 2888 2886 2883 2881 2880 2878 2875 2873 2871 2869 2867 2865 2863 2860 2857 2854 2852 2851 2851 2850 2849 2847 2844 2842 2840 2839 2839 2838 2836 2834 2832 2830 2828 2826 2824 2823 2822 2821 2819 2818 2816 2814 2813 2811 2809 2808 2805 2804 2802 2799 2798 2796 2794 2792 2791 2789 2788 2787 2786 2785 2784 2783 2782 2781 2781 2780 2779 2779 2779 2778 2778 2778 2778 2778 2778 2779 2779 2779 2780 2780 2780 2781 2781 2782 2783
2886 2884 2882 2880 2878 2877 2875 2873 2871 2869 2867 2865 2863 2861 2859 2857 2854 2850 2848 2847 2847 2846 2845 2843 2840 2838 2836 2835 2835 2834 2832 2829 2828 2825 2824 2822 2821 2819 2818 2817 2815 2813 2811 2810 2808 2806 2804 2803 2800 2799 2797 2794 2793 2791 2789 2788 2786 2785 2784 2783 2781 2780 2779 2779 2778 2777 2776 2776 2775 2775 2774 2774 2774 2774 2774 2774 2774 2774 2775 2775 2775 2776 2776 2777 2777 2778
2884 2882 2880 2878 2876 2874 2873 2871 2869 2867 2865 2863 2860 2858 2856 2855 2853 2850 2847 2844 2843 2843 2841 2840 2839 2837 2834 2832 2831 2830 2829 2827 2824 2822 2820 2819 2818 2816 2815 2813 2812 2810 2808 2806 2805 2804 2802 2799 2798 2796 2794 2792 2790 2788 2786 2784 2783 2782 2780 2779 2778 2777 2776 2775 2774 2774 2773 2772 2772 2771 2771 2770 2770 2770 2770 2770 2770 2770 2770 2770 2771 2771 2771 2772 2773 2774
2882 2880 2878 2876 2874 2873 2871 2869 2867 2864 2863 2861 2858 2855 2853 2852 2850 2848 2845 2843 2841 2840 2839 2837 2836 2834 2833 2830 2829 2827 2825 2824 2822 2819 2817 2816 2814 2813 2811 2810 2808 2806 2805 2803 2802 2800 2799 2797 2795 2793 2791 2789 2787 2785 2783 2782 2780 2779 2778 2776 2775 2774 2773 2772 2771 2770 2769 2769 2768 2768 2767 2767 2766 2766 2766 2766 2766 2766 2766 2766 2766 2766 2767 2767 2768 2769
2880 2878 2876 2874 2873 2871 2869 2867 2864 2862 2860 2859 2856 2854 2851 2849 2848 2846 2844 2842 2840 2839 2837 2834 2833 2831 2830 2828 2826 2824 2822 2820 2818 2816 2814 2813 2812 2810 2808 2806 2805 2804 2802 2800 2799 2798 2796 2794 2792 2790 2789 2787 2784 2783 2781 2779 2777 2776 2774 2773 2772 2771 2769 2769 2768 2767 2766 2765 2765 2764 2764 2763 2763 2763 2763 2762 2762 2762 2762 2762 2762 2762 2762 2763 2763 2764
2878 2876 2874 2872 2870 2869 2867 2864 2862 2860 2858 2856 2854 2852 2849 2847 2846 2844 2842 2839 2838 2836 2834 2832 2830 2829 2827 2826 2824 2822 2820 2818 2815 2813 2811 2810 2809 2808 2806 2804 2802 2800 2799 2797 2796 2794 2793 2791 2789 2787 2785 2784 2782 2780 2778 2776 2774 2773 2772 2770 2769 2768 2766 2765 2764 2764 2763 2762 2761 2761 2760 2760 2759 2759 2759 2758 2758 2758 2758 2758 2758 2758 2758 2758 2759 2759
2876 2874 2872 2869 2867 2866 2864 2863 2860 2858 2855 2854 2852 2849 2847 2845 2844 2842 2840 2837 2835 2834 2832 2829 2827 2825 2824 2824 2823 2821 2818 2815 2813 2810 2808 2807 2807 2806 2804 2801 2799 2798 2797 2795 2793 2792 2790 2788 2786 2784 2782 2781 2779 2777 2775 2773 2772 2770 2769 2767 2766 2764 2763 2762 2761 2760 2759 2759 2758 2757 2757 2756 2756 2755 2755 2754 2754 2754 2754 2754 2754 2754 2754 2754 2755 2755
2874 2872 2869 2867 2865 2863 2862 2860 2858 2856 2854 2852 2850 2848 2846 2844 2842 2840 2838 2835 2833 2831 2829 2827 2825 2823 2821 2821 2821 2820 2817 2814 2810 2807 2805 2804 2804 2804 2802 2799 2796 2795 2794 2793 2791 2789 2787 2785 2783 2781 2779 2778 2776 2774 2772 2770 2769 2767 2766 2764 2763 2762 2760 2759 2758 2757 2756 2755 2754 2754 2753 2753 2752 2752 2751 2751 2751 2750 2750 2750 2750 2750 2750 2750 2751 2751
2871 2869 2867 2865 2863 2861 2859 2858 2856 2854 2852 2850 2848 2846 2844 2842 2840 2838 2836 2834 2832 2829 2827 2825 2824 2821 2819 2817 2817 2818 2816 2812 2808 2805 2803 2801 2801 2801 2799 2797 2794 2793 2792 2790 2789 2787 2784 2783 2781 2779 2777 2775 2773 2771 2769 2767 2766 2764 2763 2761 2760 2759 2757 2756 2755 2754 2753 2752 2751 2750 2750 2749 2749 2749 2748 2748 2748 2747 2747 2747 2746 2746 2746 2746 2746 2747
2868 2867 2865 2863 2860 2858 2857 2856 2854 2852 2850 2848 2846 2844 2842 2840 2839 2837 2834 2832 2830 2828 2826 2824 2822 2820 2818 2816 2815 2815 2814 2810 2806 2803 2800 2798 2798 2798 2797 2795 2793 2791 2789 2788 2786 2784 2782 2780 2778 2776 2774 2772 2770 2768 2766 2764 2763 2761 2759 2758 2757 2755 2754 2753 2752 2751 2750 2749 2749 2748 2747 2747 2746 2746 2745 2745 2744 2744 2743 2743 2743 2743 2743 2743 2743 2743
2866 2865 2864 2861 2859 2856 2855 2854 2853 2851 2848 2846 2844 2842 2840 2838 2836 2835 2833 2831 2829 2827 2824 2822 2820 2818 2816 2814 2813 2812 2811 2808 2804 2801 2798 2796 2795 2795 2794 2792 2790 2789 2788 2786 2784 2782 2779 2778 2776 2774 2772 2770 2768 2766 2764 2762 2760 2758 2757 2755 2754 2753 2752 2751 2750 2749 2748 2747 2746 2745 2745 2744 2744 2743 2742 2742 2741 2741 2740 2739 2739 2739 2739 2739 2739 2739
2864 2863 2862 2860 2857 2854 2853 2852 2850 2849 2847 2844 2843 2840 2838 2836 2834 2833 2831 2829 2827 2825 2823 2820 2818 2816 2815 2813 2811 2810 2809 2806 2802 2799 2795 2794 2793 2793 2792 2790 2788 2786 2785 2784 2782 2780 2777 2775 2773 2771 2769 2767 2765 2763 2761 2759 2757 2756 2754 2753 2752 2751 2750 2749 2748 2747 2746 2745 2744 2743 2742 2742 2741 2740 2740 2739 2738 2738 2737 2736 2736 2735 2735 2735 2735 2735
2862 2861 2860 2858 2856 2853 2851 2849 2848 2847 2845 2844 2841 2839 2837 2834 2832 2830 2829 2827 2825 2823 2821 2819 2817 2815 2813 2811 2810 2809 2808 2805 2801 2797 2794 2791 2791 2791 2790 2789 2786 2784 2783 2781 2779 2777 2775 2773 2770 2768 2766 2764 2762 2760 2759 2757 2755 2754 2753 2752 2751 2750 2749 2748 2746 2745 2744 2743 2742 2741 2740 2739 2738 2737 2737 2736 2735 2734 2734 2733 2733 2732 2732 2732 2731 2731
2861 2859 2858 2856 2854 2852 2849 2848 2846 2845 2844 2842 2840 2838 2835 2833 2831 2829 2827 2825 2823 2821 2819 2816 2814 2813 2812 2810 2809 2808 2806 2804 2800 2796 2793 2790 2789 2789 2788 2786 2784 2782 2780 2778 2776 2774 2772 2770 2768 2766 2764 2762 2760 2758 2756 2755 2754 2752 2751 2750 2749 2748 2747 2746 2744 2743 2742 2741 2740 2739 2738 2737 2735 2734 2734 2733 2732 2731 2731 2730 2729 2729 2729 2728 2728 2728
2859 2858 2856 2854 2852 2850 2849 2847 2845 2843 2842 2840 2838 2836 2834 2832 2829 2827 2825 2823 2821 2819 2816 2814 2813 2811 2810 2809 2808 2807 2805 2802 2799 2795 2792 2789 2787 2786 2786 2784 2781 2779 2777 2776 2773 2771 2769 2768 2766 2764 2762 2760 2758 2756 2755 2754 2753 2751 2750 2749 2748 2747 2745 2744 2743 2742 2740 2739 2738 2737 2736 2734 2733 2732 2731 2730 2729 2729 2728 2728 2727 2726 2726 2725 2725 2724
2858 2856 2854 2853 2851 2849 2847 2845 2844 2842 2840 2838 2836 2834 2832 2830 2828 2826 2824 2822 2820 2817 2815 2813 2811 2809 2809 2807 2806 2805 2804 2801 2798 2794 2790 2787 2785 2784 2784 2782 2779 2777 2774 2773 2771 2769 2767 2765 2764 2762 2760 2758 2756 2755 2754 2753 2752 2751 2749 2748 2747 2745 2744 2743 2741 2740 2739 2737 2736 2735 2734 2732 2731 2730 2729 2728 2727 2726 2726 2725 2724 2724 2723 2723 2722 2721
2856 2854 2853 2851 2849 2848 2846 2844 2843 2841 2839 2837 2834 2832 2830 2828 2826 2824 2822 2821 2819 2816 2814 2812 2810 2808 2807 2805 2804 2803 2801 2799 2796 2793 2789 2786 2784 2782 2781 2780 2777 2774 2772 2770 2769 2767 2765 2763 2761 2760 2758 2757 2755 2754 2753 2752 2751 2750 2748 2747 2745 2744 2742 2741 2739 2738 2736 2735 2734 2732 2731 2730 2729 2727 2726 2725 2724 2724 2723 2723 2722 2721 2720 2720 2719 2718
2855 2853 2851 2849 2848 2846 2844 2843 2841 2839 2838 2835 2833 2831 2829 2826 2824 2823 2821 2819 2817 2815 2813 2810 2808 2806 2804 2803 2801 2800 2799 2797 2794 2791 2788 2785 2782 2780 2779 2778 2776 2773 2770 2768 2767 2765 2764 2762 2760 2758 2757 2756 2754 2754 2752 2751 2750 2749 2747 2746 2744 2742 2741 2739 2738 2736 2734 2733 2732 2730 2729 2727 2726 2725 2724 2723 2722 2721 2720 2719 2719 2718 2718 2717 2716 2715
2853 2851 2849 2848 2846 2844 2843 2841 2839 2838 2836 2834 2832 2830 2827 2825 2823 2821 2819 2818 2816 2814 2811 2809 2807 2804 2802 2800 2799 2798 2797 2795 2792 2789 2786 2784 2781 2779 2778 2776 2774 2772 2769 2766 2765 2764 2763 2760 2759 2757 2756 2755 2754 2752 2751 2750 2749 2748 2747 2745 2744 2742 2740 2739 2737 2735 2734 2732 2730 2729 2727 2726 2724 2723 2722 2720 2719 2718 2718 2717 2716 2715 2714 2713 2712 2711
2851 2849 2848 2846 2844 2843 2841 2839 2838 2836 2834 2833 2831 2829 2826 2824 2822 2820 2818 2816 2814 2812 2810 2808 2805 2803 2800 2798 2797 2796 2796 2794 2791 2788 2785 2782 2780 2778 2777 2775 2773 2771 2768 2765 2763 2762 2762 2760 2758 2756 2755 2754 2753 2752 2751 2749 2749 2747 2746 2745 2743 2741 2739 2738 2736 2734 2733 2731 2729 2728 2726 2724 2723 2722 2720 2719 2718 2717 2715 2714 2714 2712 2711 2709 2708 2707
2849 2848 2846 2844 2843 2841 2839 2838 2836 2835 2833 2831 2829 2827 2825 2823 2820 2819 2816 2814 2813 2811 2809 2806 2804 2802 2799 2797 2794 2794 2793 2793 2790 2787 2784 2781 2779 2777 2775 2774 2772 2770 2767 2764 2761 2760 2760 2759 2758 2756 2754 2754 2752 2751 2750 2749 2748 2746 2745 2744 2742 2740 2738 2736 2734 2733 2731 2729 2728 2726 2724 2723 2721 2719 2718 2717 2715 2714 2713 2712 2711 2710 2708 2706 2705 2704
2847 2846 2844 2843 2841 2839 2838 2836 2834 2833 2831 2829 2827 2825 2824 2821 2819 2817 2815 2814 2812 2810 2808 2805 2803 2801 2799 2796 2794 2792 2790 2790 2789 2786 2783 2781 2778 2776 2774 2772 2770 2769 2767 2765 2762 2759 2757 2758 2757 2756 2755 2753 2752 2750 2749 2748 2746 2744 2743 2741 2740 2738 2736 2735 2733 2731 2729 2728 2726 2724 2723 2721 2719 2717 2716 2714 2713 2712 2710 2709 2709 2707 2705 2704 2702 2701
2845 2844 2842 2841 2839 2837 2835 2834 2832 2830 2829 2827 2825 2824 2822 2820 2818 2816 2815 2813 2811 2809 2807 2804 2802 2800 2798 2796 2794 2792 2790 2789 2787 2785 2782 2780 2777 2775 2773 2771 2769 2768 2766 2765 2763 2760 2757 2756 2756 2756 2754 2753 2751 2749 2748 2747 2745 2743 2741 2739 2738 2736 2735 2733 2731 2730 2728 2726 2724 2723 2721 2719 2717 2715 2714 2712 2711 2709 2708 2707 2706 2704 2703 2701 2699 2698
2844 2842 2840 2839 2837 2835 2833 2831 2829 2828 2826 2825 2823 2822 2820 2819 2817 2815 2814 2812 2810 2808 2806 2804 2801 2799 2797 2795 2794 2792 2790 2788 2786 2784 2781 2779 2776 2774 2772 2771 2769 2767 2765 2764 2763 2761 2758 2756 2754 2754 2754 2753 2751 2749 2747 2746 2744 2742 2740 2739 2737 2735 2734 2732 2730 2728 2727 2725 2723 2721 2719 2717 2715 2714 2712 2710 2709 2707 2706 2704 2703 2702 2700 2698 2696 2695
2842 2840 2839 2837 2835 2833 2831 2829 2828 2826 2824 2823 2822 2820 2819 2817 2816 2814 2813 2811 2809 2808 2805 2803 2801 2799 2796 2794 2792 2790 2789 2787 2785 2783 2781 2779 2776 2773 2771 2770 2768 2766 2764 2762 2761 2760 2758 2756 2754 2753 2752 2751 2750 2749 2747 2745 2744 2742 2740 2738 2736 2734 2732 2731 2729 2727 2725 2723 2721 2719 2717 2715 2713 2711 2710 2708 2706 2705 2704 2702 2701 2699 2698 2696 2694 2693
2840 2839 2837 2835 2833 2831 2829 2828 2826 2824 2823 2822 2820 2819 2818 2816 2815 2813 2812 2810 2809 2807 2805 2803 2801 2799 2796 2793 2791 2789 2787 2786 2785 2783 2781 2779 2775 2773 2771 2769 2767 2765 2763 2761 2760 2758 2757 2755 2754 2752 2751 2750 2749 2749 2747 2745 2743 2741 2739 2738 2736 2734 2731 2729 2727 2725 2723 2721 2719 2717 2715 2713 2711 2709 2707 2705 2704 2702 2701 2699 2699 2697 2696 2694 2692 2691
2839 2837 2835 2833 2831 2829 2828 2826 2825 2824 2822 2821 2819 2818 2817 2815 2814 2812 2811 2809 2808 2806 2804 2802 2800 2799 2797 2794 2791 2789 2786 2785 2784 2782 2780 2778 2775 2773 2770 2769 2767 2765 2763 2760 2759 2757 2756 2754 2754 2752 2750 2749 2748 2747 2746 2744 2743 2741 2739 2737 2735 2733 2731 2729 2726 2724 2721 2719 2717 2715 2713 2710 2709 2706 2704 2703 2701 2699 2698 2697 2695 2694 2693 2692 2690 2688
2837 2835 2833 2831 2829 2828 2826 2825 2824 2822 2821 2820 2819 2817 2816 2814 2813 2811 2810 2808 2807 2805 2803 2801 2800 2798 2796 2794 2792 2789 2787 2784 2783 2781 2779 2778 2775 2773 2770 2768 2767 2765 2763 2760 2758 2756 2755 2754 2752 2751 2750 2749 2747 2745 2744 2742 2741 2739 2738 2736 2734 2732 2730 2728 2725 2722 2720 2717 2715 2713 2710 2708 2706 2704 2702 2700 2698 2697 2695 2694 2692 2691 2689 2688 2687 2685
2835 2834 2832 2830 2828 2827 2825 2824 2823 2821 2820 2819 2817 2816 2814 2813 2812 2810 2809 2807 2805 2804 2802 2800 2799 2797 2795 2794 2791 2789 2787 2784 2782 2780 2779 2777 2775 2772 2769 2767 2766 2764 2763 2760 2758 2756 2754 2753 2751 2749 2749 2748 2746 2744 2742 2740 2739 2737 2736 2734 2733 2731 2728 2726 2723 2721 2718 2715 2713 2711 2709 2706 2704 2702 2699 2697 2695 2693 2692 2690 2689 2687 2686 2684 2683 2681
2834 2832 2830 2829 2827 2826 2824 2823 2821 2820 2819 2817 2816 2814 2813 2812 2810 2809 2807 2806 2804 2802 2800 2799 2797 2795 2794 2792 2790 2788 2786 2784 2782 2780 2778 2776 2774 2772 2769 2767 2765 2763 2762 2760 2758 2756 2754 2752 2750 2749 2747 2745 2744 2743 2741 2739 2738 2736 2734 2733 2731 2730 2728 2725 2722 2719 2717 2714 2711 2709 2706 2704 2702 2699 2697 2695 2693 2690 2688 2686 2685 2683 2682 2680 2679 2677
2833 2831 2829 2828 2826 2824 2823 2821 2820 2819 2817 2816 2814 2813 2812 2810 2809 2807 2806 2804 2803 2801 2799 2797 2795 2794 2792 2791 2789 2787 2785 2783 2781 2779 2777 2775 2773 2771 2769 2766 2764 2762 2761 2759 2758 2756 2754 2752 2750 2748 2746 2744 2742 2741 2740 2739 2737 2735 2733 2731 2729 2728 2726 2724 2721 2718 2715 2712 2709 2706 2704 2701 2699 2697 2694 2692 2690 2688 2685 2683 2682 2680 2679 2677 2675 2673
2831 2830 2829 2827 2825 2824 2822 2821 2819 2818 2816 2815 2813 2812 2810 2808 2806 2805 2804 2803 2801 2799 2798 2796 2794 2793 2791 2790 2788 2786 2784 2782 2780 2778 2776 2774 2772 2769 2768 2765 2763 2761 2760 2759 2757 2756 2754 2752 2750 2748 2746 2744 2742 2740 2739 2738 2736 2734 2732 2729 2727 2726 2724 2722 2719 2716 2713 2710 2707 2704 2701 2699 2696 2694 2692 2690 2688 2686 2684 2681 2679 2677 2675 2674 2672 2670
2830 2829 2827 2826 2824 2823 2822 2820 2819 2817 2816 2814 2812 2810 2808 2806 2804 2803 2801 2800 2799 2797 2795 2794 2792 2790 2789 2788 2787 2785 2784 2781 2779 2777 2774 2773 2771 2769 2767 2764 2763 2760 2759 2758 2756 2755 2753 2752 2749 2748 2746 2744 2741 2739 2738 2737 2735 2734 2731 2729 2726 2724 2722 2720 2718 2715 2711 2709 2705 2703 2700 2697 2694 2692 2690 2688 2685 2683 2681 2679 2677 2675 2673 2671 2669 2668
2829 2828 2826 2825 2824 2822 2821 2819 2818 2817 2815 2813 2811 2809 2807 2805 2804 2802 2800 2798 2797 2795 2794 2792 2790 2788 2787 2786 2784 2784 2782 2780 2778 2775 2774 2771 2769 2768 2766 2764 2762 2760 2758 2757 2755 2754 2753 2751 2749 2747 2745 2743 2741 2739 2737 2735 2734 2732 2730 2728 2725 2722 2719 2718 2716 2713 2710 2707 2704 2701 2698 2695 2693 2690 2688 2685 2683 2681 2679 2677 2675 2673 2671 2669 2667 2666
2829 2827 2826 2824 2823 2821 2820 2819 2817 2815 2814 2812 2810 2808 2806 2804 2803 2801 2799 2797 2795 2794 2792 2790 2788 2787 2785 2784 2782 2781 2780 2778 2777 2774 2773 2770 2768 2766 2764 2763 2761 2760 2758 2756 2754 2753 2751 2750 2749 2747 2745 2743 2741 2739 2736 2734 2733 2731 2729 2727 2725 2722 2719 2716 2714 2711 2708 2705 2703 2700 2697 2694 2691 2688 2686 2683 2681 2679 2677 2675 2673 2671 2669 2667 2665 2664
2828 2826 2825 2824 2822 2820 2819 2817 2816 2814 2812 2811 2809 2807 2805 2804 2802 2800 2798 2796 2794 2793 2791 2789 2787 2785 2783 2782 2780 2779 2777 2776 2775 2773 2771 2769 2767 2766 2764 2762 2761 2759 2758 2756 2754 2752 2750 2749 2747 2746 2744 2743 2741 2739 2736 2734 2732 2730 2728 2726 2724 2722 2719 2716 2713 2710 2707 2704 2701 2698 2695 2693 2690 2687 2684 2681 2679 2677 2675 2674 2672 2670 2667 2665 2664 2662
2827 2825 2824 2823 2821 2819 2818 2816 2814 2813 2811 2810 2808 2807 2804 2803 2801 2799 2797 2795 2794 2792 2790 2788 2786 2784 2782 2780 2778 2776 2775 2774 2772 2771 2769 2768 2766 2764 2763 2761 2760 2758 2757 2755 2754 2752 2750 2748 2746 2744 2743 2741 2740 2738 2736 2734 2731 2729 2727 2725 2723 2720 2718 2715 2712 2709 2706 2703 2699 2696 2694 2691 2688 2685 2682 2679 2677 2676 2674 2672 2671 2669 2666 2664 2662 2661
2826 2824 2823 2821 2820 2818 2817 2815 2813 2812 2810 2809 2808 2806 2804 2802 2800 2798 2797 2795 2793 2791 2789 2787 2786 2784 2782 2779 2777 2775 2773 2771 2770 2769 2767 2766 2764 2763 2762 2760 2759 2758 2756 2755 2753 2751 2750 2748 2745 2744 2742 2740 2739 2737 2736 2734 2731 2729 2726 2724 2721 2719 2717 2714 2711 2709 2705 2702 2699 2695 2692 2689 2687 2684 2681 2679 2677 2674 2673 2671 2670 2668 2665 2663 2661 2660
2825 2823 2822 2820 2819 2817 2816 2814 2812 2811 2809 2808 2807 2805 2804 2802 2799 2798 2796 2794 2792 2790 2788 2786 2784 2783 2781 2779 2777 2775 2773 2770 2769 2767 2765 2764 2763 2762 2760 2759 2758 2757 2755 2754 2753 2751 2749 2748 2745 2743 2741 2739 2737 2736 2734 2733 2731 2728 2725 2723 2720 2718 2715 2713 2710 2708 2704 2701 2698 2695 2692 2689 2686 2683 2680 2678 2676 2674 2672 2671 2669 2667 2665 2663 2661 2660
2824 2822 2821 2819 2818 2816 2814 2813 2811 2809 2808 2807 2805 2804 2803 2801 2799 2797 2795 2793 2791 2789 2788 2785 2784 2782 2780 2778 2776 2774 2772 2770 2768 2766 2764 2763 2761 2760 2759 2758 2756 2755 2754 2753 2752 2751 2749 2748 2746 2743 2741 2739 2737 2734 2733 2731 2729 2727 2725 2722 2719 2717 2714 2712 2709 2707 2704 2700 2697 2694 2692 2689 2686 2683 2680 2678 2676 2674 2672 2670 2669 2667 2664 2663 2661 2660
2823 2822 2820 2819 2817 2815 2813 2812 2810 2808 2807 2805 2804 2803 2801 2800 2798 2797 2794 2793 2791 2789 2787 2785 2783 2781 2779 2777 2775 2773 2771 2769 2767 2765 2764 2762 2760 2759 2758 2756 2755 2754 2753 2752 2751 2750 2749 2748 2746 2744 2741 2738 2735 2733 2731 2729 2727 2725 2724 2721 2719 2717 2714 2711 2709 2706 2703 2699 2696 2694 2691 2688 2686 2683 2681 2678 2676 2674 2672 2671 2669 2667 2664 2663 2662 2661
2823 2821 2819 2818 2816 2814 2813 2811 2809 2808 2806 2804 2803 2801 2800 2799 2797 2795 2794 2792 2790 2788 2786 2784 2783 2780 2778 2776 2774 2772 2770 2768 2766 2764 2763 2761 2759 2758 2756 2755 2754 2753 2751 2750 2749 2749 2748 2747 2746 2744 2742 2738 2735 2732 2730 2727 2725 2724 2722 2720 2719 2716 2714 2711 2708 2705 2702 2699 2696 2693 2690 2687 2685 2683 2681 2679 2676 2674 2673 2671 2669 2668 2666 2664 2663 2662